CW9561 Weather Reports


time (UTC)temp
F
wind
direction
speed
knots
gust
knots
rain 1hr
in
rain 24hr
in
rain mn
in
humidity
%
barometer
mb
20260505083026 37 240 0.0 0.0 0.00 0.00 0.01 94 1012.3
20260505082030 37 240 0.0 0.0 0.00 0.00 0.01 94 1012.7
20260505080022 36 240 0.0 0.0 0.00 0.00 0.01 94 1012.6
20260505075036 36 240 0.0 0.0 0.00 0.00 0.01 94 1012.6
20260505074028 36 240 0.0 0.0 0.00 0.00 0.01 94 1012.5
20260505073026 37 240 0.0 0.0 0.00 0.00 0.01 94 1012.4
20260505072038 37 240 0.0 0.0 0.00 0.00 0.01 95 1013.2
20260505071031 37 240 0.0 0.0 0.00 0.00 0.01 95 1013.3
20260505070022 37 240 0.0 0.0 0.00 0.00 0.01 95 1013.2
20260505065038 37 240 0.0 0.0 0.00 0.00 0.01 95 1013.4
20260505063031 37 240 0.0 0.0 0.00 0.00 0.00 95 1013.2
20260505062022 37 240 0.0 0.0 0.00 0.00 0.00 95 1013.3
20260505061035 37 240 0.0 0.0 0.00 0.00 0.00 95 1013.2
20260505060029 37 240 0.0 0.0 0.00 0.00 0.00 94 1013.0
20260505055030 36 240 0.0 0.0 0.00 0.00 0.23 94 1013.2
20260505054024 36 240 0.0 0.0 0.00 0.00 0.23 95 1013.3
20260505053036 36 240 0.0 0.0 0.00 0.00 0.23 94 1013.5
20260505052029 35 240 0.0 0.0 0.00 0.00 0.23 94 1013.6
20260505051021 35 240 0.0 0.0 0.00 0.00 0.23 94 1013.7
20260505041034 36 240 0.0 0.0 0.00 0.00 0.23 94 1013.7
20260505040024 36 240 0.0 0.0 0.00 0.00 0.23 94 1013.4
20260505035037 37 240 0.0 0.0 0.00 0.00 0.23 94 1013.0
20260505034029 37 240 0.0 0.0 0.00 0.00 0.23 93 1013.0
20260505033028 37 240 0.0 0.0 0.00 0.00 0.23 94 1012.8
20260505032039 37 240 0.0 0.0 0.00 0.00 0.23 94 1013.4
20260505031027 37 240 0.0 0.0 0.00 0.00 0.23 94 1013.5
20260505030024 37 240 0.0 0.0 0.00 0.00 0.23 94 1013.3
20260505025040 37 240 0.0 0.0 0.00 0.00 0.23 93 1013.0
20260505023032 37 240 0.0 0.0 0.00 0.00 0.23 93 1013.0
20260505022027 37 240 0.0 0.0 0.00 0.00 0.23 93 1012.8
20260505021040 37 240 0.0 0.0 0.00 0.00 0.23 93 1013.0
20260505020031 37 240 0.0 0.0 0.00 0.00 0.23 93 1012.7
20260505015028 37 240 0.0 0.0 0.00 0.00 0.23 92 1012.4
20260505013035 38 240 0.0 0.0 0.00 0.00 0.23 92 1012.4
20260505011023 37 240 0.9 0.0 0.00 0.00 0.23 92 1012.9
20260505005036 38 240 0.9 0.0 0.00 0.00 0.20 90 1013.0
20260505004028 38 240 0.0 0.0 0.00 0.00 0.17 90 1013.1
20260505001030 40 314 1.7 0.0 0.00 0.00 0.13 86 1012.8
20260505000029 41 311 1.7 0.0 0.00 0.00 0.12 87 1013.1
20260504235028 42 195 0.9 0.0 0.00 0.00 0.12 89 1012.7
20260504234022 41 226 0.0 0.0 0.00 0.00 0.12 89 1012.5
20260504233038 41 223 0.0 0.0 0.00 0.00 0.11 88 1012.2
20260504232032 42 223 0.0 0.0 0.00 0.00 0.09 84 1012.3
20260504231027 45 223 0.9 0.0 0.00 0.00 0.05 78 1012.7
20260504230023 49 204 1.7 0.0 0.00 0.00 0.00 65 1012.5
20260504225040 52 269 0.9 0.0 0.00 0.00 0.00 54 1012.4
20260504224035 52 236 1.7 0.0 0.00 0.00 0.00 52 1012.1
20260504223031 52 292 2.6 0.0 0.00 0.00 0.00 52 1012.2
20260504222027 51 124 3.5 0.0 0.00 0.00 0.00 59 1012.1
20260504221022 51 126 0.9 0.0 0.00 0.00 0.00 59 1012.6
20260504220039 51 208 1.7 0.0 0.00 0.00 0.00 59 1012.7
20260504215033 49 191 1.7 0.0 0.00 0.00 0.00 60 1012.9
20260504214027 49 286 2.6 0.0 0.00 0.00 0.00 61 1013.2
20260504213027 49 237 1.7 0.0 0.00 0.00 0.00 60 1013.0
20260504212028 49 197 3.5 0.0 0.00 0.00 0.00 60 1013.0
20260504211021 50 244 1.7 0.0 0.00 0.00 0.00 60 1013.1
20260504205034 47 180 2.6 0.0 0.00 0.00 0.00 68 1012.9
20260504204034 47 166 2.6 0.0 0.00 0.00 0.00 65 1013.0
20260504203030 49 195 4.3 0.0 0.00 0.00 0.00 60 1013.2
20260504202030 52 200 1.7 0.0 0.00 0.00 0.00 48 1013.1
20260504201023 52 163 2.6 0.0 0.00 0.00 0.00 49 1013.1
20260504200023 50 163 0.9 0.0 0.00 0.00 0.00 50 1013.1
20260504195040 47 155 0.9 0.0 0.00 0.00 0.00 55 1013.3
20260504193037 50 218 2.6 0.0 0.00 0.00 0.00 54 1014.1
20260504192033 51 360 1.7 0.0 0.00 0.00 0.00 53 1013.7
20260504190031 52 337 3.5 0.0 0.00 0.00 0.00 54 1013.9
20260504185027 51 290 3.5 0.0 0.00 0.00 0.00 54 1014.0
20260504183022 51 349 0.9 0.0 0.00 0.00 0.00 55 1014.4
20260504182020 51 226 1.7 0.0 0.00 0.00 0.00 53 1014.4
20260504181035 51 257 0.9 0.0 0.00 0.00 0.00 56 1014.6
20260504180033 52 184 0.0 0.0 0.00 0.00 0.00 50 1014.6
20260504175030 52 284 0.9 0.0 0.00 0.00 0.00 49 1014.5
20260504174029 52 202 2.6 0.0 0.00 0.00 0.00 54 1014.7
20260504173029 52 238 1.7 0.0 0.00 0.00 0.00 51 1014.8
20260504172021 51 240 1.7 0.0 0.00 0.00 0.00 56 1015.0
20260504151032 44 182 2.6 0.0 0.00 0.00 0.00 63 1015.2
20260504141022 39 19 0.9 0.0 0.00 0.00 0.00 57 1015.6